Location: Fennell Observatory
(35.2597°N, 89.5125°W)
Time: 08:42:19
(UTC-06:00)

Daily predictions for brighter satellites

Satellite Brightness Start Highest point End
(mag) Time Altitude Azimuth Time Altitude Azimuth Time Altitude Azimuth
USA 229 DEB 4.4 17:33:06 10° S 17:39:08 34° ESE 17:45:14 10° NE
USA 229 4.4 17:33:13 10° S 17:39:14 34° ESE 17:45:19 10° NE
SMAP 3.2 17:34:45 10° S 17:39:24 84° WSW 17:44:05 10° NNW
Cosmos 1703 3.8 17:39:41 10° SSE 17:43:15 36° E 17:46:50 10° NNE
Cosmos 1634 Rocket 4.1 17:38:02 10° N 17:44:13 85° W 17:50:22 10° S
Cosmos 1184 Rocket 4.4 17:42:26 10° SE 17:44:45 18° E 17:47:04 10° NE
Cosmos 1125 Rocket 3.7 17:40:24 10° NNW 17:45:37 78° WSW 17:50:47 10° S
CZ-4 R/B 2.4 17:42:29 10° S 17:46:14 49° W 17:50:02 10° NNW
SJ-6B 4.5 17:45:43 10° ESE 17:48:09 16° ENE 17:50:36 10° NNE
Cosmos 2151 3.5 17:48:25 10° SSW 17:52:33 62° W 17:56:44 10° N
YAOGAN 1 3.1 17:48:40 10° S 17:52:58 67° W 17:57:17 10° NNW
MONITOR-E 4.1 17:51:22 10° SSE 17:54:30 69° ENE 17:57:39 10° N
Cosmos 2237 Rocket 3.4 17:49:36 10° SW 17:54:55 43° WNW 18:00:18 10° N
Cosmos 1707 Rocket 4.2 17:51:28 10° NNE 17:55:23 32° E 17:59:17 10° SE
OTV 4 3.0 17:53:36 10° W 17:55:56 21° SSW 17:58:16 10° SSE
Cosmos 1300 3.3 17:53:36 10° NNW 17:57:23 62° W 18:01:10 10° S
COSMO-SKYMED 1 2.5 17:53:26 10° NNE 17:57:47 72° ESE 18:02:06 10° S
H-2A ROCKET BODY 4.4 17:19:59 10° WSW 18:02:33 62° S 18:09:14 10° E
Cosmos 1666 Rocket 3.9 17:58:37 10° SSE 18:02:43 44° E 18:06:53 10° NNE
Thor Agena Rocket 4.5 17:58:15 10° N 18:03:16 50° WNW 18:08:13 10° SW
SL-16 R/B 2.2 17:57:38 10° SSW 18:03:17 90° ESE 18:08:58 10° NNE
SPOT 3 Rocket 4.4 17:58:55 10° S 18:03:57 55° W 18:09:02 10° NNW
Cosmos 1538 Rocket 4.0 17:59:06 10° S 18:04:20 70° ESE 18:09:40 10° NNE
Meteor 1-27 4.3 17:59:50 10° N 18:05:41 89° ENE 18:11:32 10° S
Haruka 3.7 18:02:27 10° WSW 18:06:10 60° S 18:16:07 11° E
FREGAT/IRIS 4.1 18:04:29 10° ESE 18:06:36 18° ENE 18:08:44 10° NNE
Meteor 2-10 4.1 18:03:16 10° N 18:08:26 86° W 18:13:45 10° S
Cosmos 1484 Rocket 3.0 18:07:19 10° S 18:11:14 75° W 18:15:14 10° NNW
BREEZE-M DEB (TANK) 3.9 18:07:54 10° NW 18:13:14 40° WSW 18:15:56 10° SSE
Resurs 01 Rocket 3.1 18:12:15 15° E 18:13:20 17° ENE 18:16:08 10° NNE
Cosmos 1340 Rocket 3.6 18:09:53 10° SSW 18:13:44 53° W 18:17:35 10° N
ORS 1 (USA 231) 4.5 18:12:53 10° WNW 18:16:03 89° NNE 18:18:21 17° ESE
Cosmos 1680 Rocket 4.3 18:14:16 10° SSE 18:18:43 29° E 18:22:04 15° NE
Cosmos 2297 3.7 18:13:54 10° NNW 18:19:38 78° ENE 18:25:22 10° SSE
Meteor 1-28 Rocket 3.2 18:18:06 10° N 18:21:49 81° WNW 18:25:33 10° SSW
Lacrosse 4 Rocket 2.3 18:21:10 10° N 18:24:33 25° ENE 18:25:17 23° ENE
Tiangong 1 1.3 18:24:54 10° SW 18:27:47 49° SSE 18:28:39 34° E
FENGYUN 3A 4.3 18:24:59 10° SE 18:29:36 30° ENE 18:34:14 10° N
METEOR-M 4.1 18:24:30 10° SSE 18:29:45 60° ENE 18:35:01 10° N
Intelsat 5-1 Rocket 4.1 18:30:06 10° S 18:30:53 11° S 18:31:45 10° SSE
NOSS 3-1 (C) 4.2 18:26:17 10° SSE 18:30:58 27° ESE 18:32:51 23° E
Cosmos 1869 3.8 18:27:58 10° N 18:31:46 38° E 18:35:32 10° SSE
Milstar 3 4.3 18:29:04 10° WSW 18:34:53 30° SSW 18:40:56 10° SE
Cosmos 1470 Rocket 3.9 18:31:43 10° SSE 18:35:47 40° E 18:38:13 21° NE
NOAA 12 4.0 18:33:03 10° SSE 18:38:16 79° ENE 18:43:33 10° N
Cosmos 773 Rocket 4.0 18:33:47 10° SSW 18:38:56 84° WNW 18:44:10 10° NNE
Cosmos 1943 4.0 18:36:39 10° SSE 18:41:21 28° ESE 18:41:54 27° E
USA 215 3.7 18:40:52 24° E 18:44:15 41° NE 18:50:19 10° NNW
Nadezhda 4 Rocket 4.2 18:40:01 10° S 18:46:15 76° W 18:52:35 10° N
Cosmos 2242 Rocket 3.5 18:42:33 10° N 18:46:58 65° E 18:51:23 10° SSE
Cosmos 1626 3.7 18:44:08 10° SSW 18:47:36 36° W 18:51:06 10° NNW
Cosmos 2026 Rocket 4.2 18:44:15 10° SSE 18:50:05 44° E 18:55:51 10° NNE
ATLAS 2A CENTAUR R/B 3.8 18:50:32 10° SSE 18:51:15 12° SSE 18:51:15 12° SSE
Sich 1 4.1 18:49:31 10° SSW 18:53:47 46° W 18:58:04 10° N
Cosmos 2112 Rocket 4.0 18:50:01 10° S 18:55:05 57° ESE 18:57:11 34° NE
Aureole 1 Rocket 4.2 18:53:02 10° SSW 18:58:12 64° WNW 19:05:07 10° NNE
Lacrosse 5 rocket 3.9 18:56:23 10° WNW 18:59:16 20° WSW 19:02:15 10° S
ALOS 2.2 18:56:01 10° SSE 19:00:36 61° ENE 19:05:13 10° N
Coronas F rocket 3.6 19:01:40 10° SW 19:03:34 20° W 19:03:52 20° WNW
Cosmos 1633 Rocket 4.4 19:00:07 10° SSW 19:04:15 40° W 19:08:24 10° N
Meteor 2-20 4.4 18:59:57 10° SSE 19:05:51 55° E 19:09:17 25° NNE
Cosmos 1603 3.8 19:02:31 10° SSW 19:08:06 72° WNW 19:12:04 20° NNE
Cosmos 1092 Rocket 4.3 19:02:23 10° SSW 19:08:41 71° W 19:15:02 10° N
FengYun 1-2 T 4.1 19:04:43 10° SSE 19:10:16 79° ENE 19:15:48 10° N
Delta 2 Rocket 4.3 19:07:36 10° SW 19:09:44 29° SSW 19:09:44 29° SSW
Cosmos 292 Rocket 4.0 19:06:52 10° SSW 19:11:35 65° WNW 19:14:08 27° N
Cosmos 1455 4.0 19:09:36 10° NNW 19:13:00 31° W 19:16:25 10° SSW
SJ-6B 4.5 19:18:44 10° SSW 19:22:28 35° W 19:26:17 10° NNW
Spot 2 Rocket 3.5 19:22:17 10° S 19:27:19 80° WSW 19:32:23 10° NNW
NOSS 3-1 (A) 3.5 19:37:47 10° SSW 19:42:21 59° S 19:42:21 59° S
Cosmos 2369 Rocket 3.8 19:40:51 10° NNW 19:42:51 22° N 19:42:51 22° N
Meteor 2-20 Rocket 4.4 19:40:49 10° S 19:46:24 76° SSW 19:46:24 76° SSW
Resurs 01 Rocket 2.9 19:45:19 10° SSW 19:49:47 38° W 19:53:38 10° NNW
Lacrosse 4 Rocket 3.9 19:59:58 10° WNW 20:01:45 18° W 20:01:45 18° W
USA 215 4.0 20:28:15 47° W 20:28:15 47° W 20:33:28 10° NW
